Location: Eisingen in Unterfranken
(49.7591°N, 9.8347°E)
Time: 02:34:06
(UTC+01:00)

N. Korean satellite - Pass Details

Date: 08 December 2022
Orbit: 408 x 444 km, 97.3° (Epoch: 28 January)

Event Time Altitude Azimuth Distance (km) Brightness Sun altitude
Rises 06:27:30 0° 4° (N) 2,512 10.1 -14.8°
Reaches altitude 10° 06:29:43 10° 354° (N) 1,624 9.0 -14.5°
Maximum altitude 06:32:49 31° 291° (WNW) 835 7.2 -14.0°
Drops below altitude 10° 06:35:52 10° 228° (SW) 1,587 8.9 -13.5°
Sets 06:38:00 0° 218° (SW) 2,443 9.9 -13.2°
